This is the latest recevied weather packets stored in our database for station/object W1SCW. If no packets are shown the sender has not sent any weather packets the latest 10 day(s).
| Time | Temp. | Humidity | Pressure | Rain* | Wind** | Luminosity | Snow |
|---|---|---|---|---|---|---|---|
| 1777855411 | 23.89° C | 47% | 1015.9 hPa | 0 mm | - | 15 W/m² | - |
| 1777855108 | 23.89° C | 47% | 1015.9 hPa | 0 mm | - | 23 W/m² | - |
| 1777854805 | 23.89° C | 46% | 1016 hPa | 0 mm | - | 26 W/m² | - |
| 1777854502 | 23.89° C | 46% | 1016 hPa | 0 mm | - | 21 W/m² | - |
| 1777854198 | 24.44° C | 45% | 1016 hPa | 0 mm | - | 19 W/m² | - |
| 1777853896 | 24.44° C | 44% | 1015.9 hPa | 0 mm | - | 21 W/m² | - |
| 1777853593 | 25° C | 43% | 1015.9 hPa | 0 mm | - | 26 W/m² | - |
| 1777853290 | 25.56° C | 41% | 1015.9 hPa | 0 mm | - | 46 W/m² | - |
| 1777852987 | 25.56° C | 41% | 1015.9 hPa | 0 mm | - | 71 W/m² | - |
| 1777852684 | 25.56° C | 41% | 1016.3 hPa | 0 mm | - | 75 W/m² | - |
| 1777852381 | 25.56° C | 42% | 1016.2 hPa | 0 mm | - | 92 W/m² | - |
| 1777852079 | 25.56° C | 39% | 1016.1 hPa | 0 mm | - | 77 W/m² | - |
| 1777851776 | 26.11° C | 36% | 1016.2 hPa | 0 mm | - | 71 W/m² | - |
| 1777851474 | 26.11° C | 37% | 1016 hPa | 0 mm | - | 129 W/m² | - |
| 1777851170 | 26.67° C | 36% | 1016.1 hPa | 0 mm | - | 140 W/m² | - |
| 1777850867 | 26.67° C | 36% | 1016.1 hPa | 0 mm | - | 146 W/m² | - |
| 1777850564 | 26.67° C | 36% | 1016.1 hPa | 0 mm | - | 169 W/m² | - |
| 1777850262 | 26.67° C | 35% | 1016.4 hPa | 0 mm | - | 191 W/m² | - |
| 1777849959 | 26.67° C | 35% | 1016.3 hPa | 0 mm | - | 196 W/m² | - |
| 1777849655 | 26.67° C | 36% | 1016.3 hPa | 0 mm | - | 225 W/m² | - |
| 1777849352 | 26.67° C | 35% | 1016.2 hPa | 0 mm | - | 245 W/m² | - |
| 1777849049 | 26.67° C | 36% | 1016.3 hPa | 0 mm | - | 272 W/m² | - |
| 1777848749 | 26.67° C | 35% | 1016.3 hPa | 0 mm | - | 306 W/m² | - |
| 1777848446 | 27.22° C | 36% | 1016.5 hPa | 0 mm | - | 279 W/m² | - |
| 1777848144 | 27.22° C | 37% | 1016.6 hPa | 0 mm | - | 321 W/m² | - |
* Rain latest hour (hover to see other rain measurements)
** Current wind speed in m/s (hover to see current wind gust speed)